Mc Allen Miller International Airport
KMFE : now visible

Airfield :











YOU CAN JOIN US ON...

 
LOGIN :

Register | Disclaimer

   EN    FR    IT 

 









Legend :    VFR   Marginal VFR   IFR   Intensive IFR   Very Intensive IFR
Visi :
Ceiling :
>= 8 km
>= 3000ft
5 to 8 km
1000 to 3000 ft
1500m to 5 km
500 to 1000 ft
800 to 1500m
200 to 500 ft
< 800m
< 200 ft
Symbols :   Thunderstorms  Fog  Heavy snow  Heavy precipitations  Wind > 20 kt






- Airport Elevation : 107 ft
- IATA code : MFE


KMFE - Mc Allen Miller International

CURRENT METAR :
  • 220053Z 31003KT 10SM OVC060 07/M02 A3034 RMK AO2 SLP275 T00671017

EXPIRED METARs :
  • 212353Z 33005KT 10SM OVC055 07/M02 A3034 RMK AO2 SLP273 T00671022 10067 20039 55004
  • 212253Z 32007KT 10SM FEW038 OVC060 07/M02 A3033 RMK AO2 SLP271 T00671017

TAF KMFE
Valid from the 22 at 00:00 until the 23 at 00:00 UTC


212331Z 2200/2224 35005KT P6SM BKN045
FM220900 32005KT P6SM OVC029
FM221100 34006KT P6SM OVC040
FM221500 33007KT P6SM OVC030
FM221800 33008KT P6SM OVC019
KZHU FIR / North America



MET'MAP, your aeronautical weather chart ! - Copyright ORBIFLY December 2007 - Disclaimer

ORBIFLY MET'MAP TEAM :

Programming & Development : Alexandra Zaïnal
Concept & original design : Baudouin d'Aumeries
Assistance for programming : Marc-Olivier Méhu
Technical & hardware support : Manuel Goepfert

Contact : metmap@orbifly.com




SOURCES & CREDITS :

   NOAA       Earth
Advisory